When you browse on this site, cookies collect data to enhance your experience and personalize the content and advertising you see.
Visit our Privacy Policy to learn more. By continuing to use the site, you agree to this use of cookies and data.
  • En España
  • Lista de países
  • Para 7 días
  • Temperatura del agua
  • Mapa Satelital
  • El tiempo en el mapa
  • Informadores
  • user-avatar
    Iniciar sesión

    Tiempo cada hora Karaganda

    Hoy, 21 Junio, Viernes

    Tiempo Temperatura Precipitaciones Viento Presión Humedad
    00:00 +14°C° 0 mm 4 mps 709 mmHg 69%
    01:00 +13°C° 0 mm 3 mps 708 mmHg 71%
    02:00 +12°C° 0 mm 3 mps 708 mmHg 73%
    03:00 +13°C° 0 mm 2 mps 708 mmHg 73%
    04:00 +13°C° 0 mm 1 mps 708 mmHg 74%
    05:00 +13°C° 0 mm 1 mps 708 mmHg 74%
    06:00 +16°C° 0 mm 1 mps 708 mmHg 66%
    07:00 +19°C° 0 mm 1 mps 708 mmHg 58%
    08:00 +21°C° 0 mm 1 mps 708 mmHg 50%
    09:00 +23°C° 0 mm 1 mps 708 mmHg 45%
    10:00 +24°C° 0 mm 2 mps 709 mmHg 39%
    11:00 +26°C° 0 mm 3 mps 709 mmHg 34%
    12:00 +26°C° 0 mm 3 mps 708 mmHg 34%
    13:00 +26°C° 0 mm 3 mps 708 mmHg 33%
    14:00 +26°C° 0 mm 4 mps 708 mmHg 33%
    15:00 +26°C° 0 mm 4 mps 708 mmHg 34%
    16:00 +26°C° 0 mm 5 mps 708 mmHg 35%
    17:00 +26°C° 0 mm 5 mps 708 mmHg 36%
    18:00 +23°C° 0 mm 4 mps 708 mmHg 41%
    19:00 +21°C° 0 mm 3 mps 707 mmHg 47%
    20:00 +20°C° 0 mm 2 mps 707 mmHg 53%
    21:00 +19°C° 0 mm 2 mps 707 mmHg 55%
    22:00 +18°C° 0 mm 2 mps 707 mmHg 57%
    23:00 +17°C° 0 mm 2 mps 707 mmHg 59%

    Mañana, 22 Junio, Sábado

    Tiempo Temperatura Precipitaciones Viento Presión Humedad
    00:00 +16°C° 0 mm 2 mps 707 mmHg 62%
    01:00 +15°C° 0 mm 1 mps 707 mmHg 66%
    02:00 +14°C° 0 mm 1 mps 706 mmHg 70%
    03:00 +14°C° 0 mm 1 mps 707 mmHg 70%
    04:00 +15°C° 0 mm 1 mps 707 mmHg 71%
    05:00 +15°C° 0 mm 1 mps 707 mmHg 71%
    06:00 +18°C° 0 mm 1 mps 708 mmHg 63%
    07:00 +19°C° 0 mm 2 mps 708 mmHg 56%
    08:00 +21°C° 0 mm 2 mps 709 mmHg 48%
    09:00 +22°C° 0 mm 3 mps 709 mmHg 44%
    10:00 +25°C° 0 mm 3 mps 709 mmHg 41%
    11:00 +26°C° 0 mm 4 mps 709 mmHg 37%
    12:00 +26°C° 0 mm 4 mps 709 mmHg 39%
    13:00 +26°C° 0 mm 5 mps 709 mmHg 40%
    14:00 +25°C° 0 mm 5 mps 709 mmHg 42%
    15:00 +25°C° 0 mm 5 mps 709 mmHg 44%
    16:00 +23°C° 0 mm 6 mps 709 mmHg 45%
    17:00 +23°C° 0 mm 6 mps 710 mmHg 46%
    18:00 +21°C° 0 mm 6 mps 710 mmHg 52%
    19:00 +19°C° 0 mm 6 mps 710 mmHg 58%
    20:00 +16°C° 0 mm 5 mps 710 mmHg 64%
    21:00 +15°C° 0 mm 5 mps 711 mmHg 65%
    22:00 +14°C° 0 mm 4 mps 711 mmHg 65%
    23:00 +13°C° 0 mm 3 mps 711 mmHg 66%

    Pasado mañana, 23 Junio, Domingo

    Tiempo Temperatura Precipitaciones Viento Presión Humedad
    00:00 +13°C° 0 mm 4 mps 711 mmHg 64%
    01:00 +12°C° 0 mm 4 mps 711 mmHg 63%
    02:00 +12°C° 0 mm 4 mps 711 mmHg 61%
    03:00 +11°C° 0 mm 3 mps 712 mmHg 66%
    04:00 +10°C° 0 mm 3 mps 712 mmHg 70%
    05:00 +9°C° 0 mm 3 mps 712 mmHg 75%
    06:00 +11°C° 0 mm 3 mps 712 mmHg 69%
    07:00 +12°C° 0 mm 3 mps 712 mmHg 63%
    08:00 +13°C° 0 mm 4 mps 713 mmHg 57%
    09:00 +14°C° 0 mm 4 mps 713 mmHg 50%
    10:00 +15°C° 0 mm 4 mps 713 mmHg 44%
    11:00 +17°C° 0 mm 3 mps 713 mmHg 38%
    12:00 +18°C° 0 mm 4 mps 713 mmHg 35%
    13:00 +19°C° 0 mm 4 mps 713 mmHg 33%
    14:00 +20°C° 0 mm 4 mps 713 mmHg 31%
    15:00 +20°C° 0 mm 4 mps 713 mmHg 32%
    16:00 +20°C° 0 mm 5 mps 713 mmHg 34%
    17:00 +20°C° 0 mm 5 mps 713 mmHg 35%
    18:00 +18°C° 0 mm 4 mps 713 mmHg 42%
    19:00 +17°C° 0 mm 2 mps 713 mmHg 48%
    20:00 +15°C° 0 mm 1 mps 713 mmHg 55%
    21:00 +15°C° 0 mm 2 mps 712 mmHg 53%
    22:00 +15°C° 0 mm 2 mps 712 mmHg 50%
    23:00 +13°C° 0 mm 3 mps 712 mmHg 48%

    24 Junio, Lunes

    Tiempo Temperatura Precipitaciones Viento Presión Humedad
    00:00 +13°C° 0 mm 3 mps 712 mmHg 48%
    01:00 +13°C° 0 mm 4 mps 711 mmHg 48%
    02:00 +13°C° 0 mm 5 mps 711 mmHg 48%
    03:00 +14°C° 0 mm 5 mps 711 mmHg 47%
    04:00 +14°C° 0 mm 6 mps 710 mmHg 47%
    05:00 +14°C° 0 mm 6 mps 710 mmHg 46%
    06:00 +15°C° 0.3 mm 7 mps 710 mmHg 50%
    07:00 +15°C° 0.3 mm 7 mps 710 mmHg 54%
    08:00 +15°C° 0.3 mm 7 mps 710 mmHg 58%
    09:00 +17°C° 0.1 mm 8 mps 710 mmHg 56%
    10:00 +20°C° 0.1 mm 8 mps 710 mmHg 54%
    11:00 +22°C° 0.1 mm 9 mps 709 mmHg 52%
    12:00 +23°C° 0.1 mm 8 mps 709 mmHg 53%
    13:00 +24°C° 0.1 mm 7 mps 709 mmHg 54%
    14:00 +26°C° 0.1 mm 7 mps 709 mmHg 55%
    15:00 +26°C° 0.3 mm 7 mps 709 mmHg 54%
    16:00 +26°C° 0.3 mm 7 mps 709 mmHg 54%
    17:00 +26°C° 0.3 mm 7 mps 709 mmHg 54%
    18:00 +25°C° 0.1 mm 5 mps 709 mmHg 62%
    19:00 +22°C° 0.1 mm 4 mps 708 mmHg 69%
    20:00 +21°C° 0.1 mm 2 mps 708 mmHg 77%
    21:00 +19°C° 0 mm 2 mps 708 mmHg 81%
    22:00 +19°C° 0 mm 1 mps 708 mmHg 85%
    23:00 +16°C° 0 mm 0 mps 708 mmHg 89%

    25 Junio, Martes

    Tiempo Temperatura Precipitaciones Viento Presión Humedad
    00:00 +16°C° 0 mm 1 mps 708 mmHg 89%
    01:00 +16°C° 0 mm 1 mps 708 mmHg 90%
    02:00 +16°C° 0 mm 1 mps 708 mmHg 90%
    03:00 +16°C° 0 mm 1 mps 708 mmHg 91%
    04:00 +18°C° 0 mm 1 mps 708 mmHg 91%
    05:00 +18°C° 0 mm 1 mps 708 mmHg 91%
    06:00 +20°C° 0 mm 1 mps 708 mmHg 84%
    07:00 +22°C° 0 mm 1 mps 708 mmHg 76%
    08:00 +24°C° 0 mm 2 mps 708 mmHg 69%
    09:00 +25°C° 0 mm 2 mps 709 mmHg 63%
    10:00 +27°C° 0 mm 2 mps 709 mmHg 57%
    11:00 +28°C° 0 mm 2 mps 709 mmHg 51%
    12:00 +28°C° 0 mm 3 mps 709 mmHg 49%
    13:00 +29°C° 0 mm 3 mps 708 mmHg 47%
    14:00 +29°C° 0 mm 4 mps 708 mmHg 45%
    15:00 +29°C° 0 mm 3 mps 708 mmHg 44%
    16:00 +29°C° 0 mm 3 mps 708 mmHg 44%
    17:00 +29°C° 0 mm 3 mps 708 mmHg 43%
    18:00 +28°C° 0 mm 2 mps 708 mmHg 50%
    19:00 +26°C° 0 mm 1 mps 707 mmHg 56%
    20:00 +24°C° 0 mm 1 mps 707 mmHg 63%
    21:00 +23°C° 1.4 mm 2 mps 707 mmHg 71%
    22:00 +20°C° 1.4 mm 4 mps 707 mmHg 79%
    23:00 +19°C° 1.4 mm 6 mps 706 mmHg 88%

    26 Junio, Miércoles

    Tiempo Temperatura Precipitaciones Viento Presión Humedad
    00:00 +19°C° 0.3 mm 5 mps 706 mmHg 86%
    01:00 +19°C° 0.3 mm 4 mps 706 mmHg 85%
    02:00 +19°C° 0.3 mm 3 mps 706 mmHg 83%
    03:00 +19°C° 0 mm 2 mps 706 mmHg 83%
    04:00 +19°C° 0 mm 2 mps 705 mmHg 83%
    05:00 +19°C° 0 mm 2 mps 705 mmHg 83%
    06:00 +20°C° 0 mm 2 mps 705 mmHg 79%
    07:00 +21°C° 0 mm 2 mps 705 mmHg 76%
    08:00 +23°C° 0 mm 2 mps 705 mmHg 72%
    09:00 +24°C° 0.3 mm 1 mps 705 mmHg 66%
    10:00 +25°C° 0.3 mm 1 mps 705 mmHg 60%
    11:00 +27°C° 0.3 mm 1 mps 705 mmHg 54%
    12:00 +27°C° 0 mm 1 mps 705 mmHg 50%
    13:00 +28°C° 0 mm 2 mps 705 mmHg 47%
    14:00 +29°C° 0 mm 2 mps 705 mmHg 43%
    15:00 +26°C° 1.6 mm 3 mps 704 mmHg 57%
    16:00 +23°C° 1.6 mm 4 mps 704 mmHg 70%
    17:00 +20°C° 1.6 mm 6 mps 703 mmHg 83%
    18:00 +20°C° 0 mm 4 mps 704 mmHg 84%
    19:00 +20°C° 0 mm 3 mps 704 mmHg 84%
    20:00 +20°C° 0 mm 2 mps 704 mmHg 84%
    21:00 +19°C° 0 mm 2 mps 704 mmHg 83%
    22:00 +19°C° 0 mm 2 mps 703 mmHg 83%
    23:00 +19°C° 0 mm 2 mps 703 mmHg 82%
    Mostrar más